Showing default

MALLIGYONG-1, 58400

Orbit data source: Space-Track

MALLIGYONG-1, 58400 is a payload satellite owned by Choson (KP) in SSO that was launched on Tue, 21 Nov 2023 UTC via a CHEONLIMA-1 launch vehicle from the Yunsong, Dprk (YUN). Payload-class satellites include a variety of spacecraft equipped with specific instruments for various scientific and technological missions. These include communications satellites like Starlink; space stations such as the ISS; scientific satellites like the Hubble; Earth observation satellites from companies like Planet Labs, Umbra, and HawkEye 360; GPS; miniature CubeSats for education and research; and military/defense satellites.

Loading next visibility...
Identifier
58400, 2023-179A
Orbit
SSO
Country
Flag of KPKP / NKOR
Related business
Manufacturer
Choson
Mission
Operational Defense Imaging
Bus & Motor
TD SATELLITE, Unknown motor
Mass
~200 kg wet, ~200 kg dry
Launch date (UTC)
2023-11-21 (3 years ago)
Launch vehicle
CHEONLIMA-1
Launch site
Yunsong, Dprk (YUN)
Object type
Payload
Rocket body
Debris
Shape & HBR
Box, 0.6 m
Radar Cross Section
1.280 m², Large (>1 m²)

Expand to show TLE details & history
Last TLE update: 22 hours ago

TLE from 22 hours ago
0 MALLIGYONG-1
1 58400U 23179A   26172.50657056  .00002267  00000-0  10023-3 0  9997
2 58400  97.3014  53.9321 0009020  25.1359 335.0315 15.22663908143417
Epoch: 2026-06-21T12:09Z
TLE epoch observation values (Epoch: 2026-06-21T12:09:27.696Z)
Latitude
-0.00004°
Longitude
-38.13915°
Altitude
495.283 km
Speed
7.62 km/s
True Right ascension
03h 35m 43s
True Declination
0° 00' 00"
Sunlit
Object was in daylight at epoch
Visualization orbit readout
Latitude
Unknown
Longitude
Unknown
Altitude
Unknown
Speed
Unknown
Apparent Right ascension
Unknown
Apparent Declination
Unknown
Sunlit
N/A
Visualization observer readout
Local Sidereal Time
21:41:17
Azimuth
Unknown
Elevation
Unknown
Doppler factor
Unknown
Orbital elements
Apogee altitude
500.966 km
Perigee altitude
488.568 km
Semi-major axis
6,872.904 km
Eccentricity
0.0009
Inclination
97.3014°
RAAN
53.9321°
Arg. of periapsis
25.1359°
True anomaly
334.98782°
Mean anomaly
335.0315°
Eccentric anomaly
335.00967°
Mean motion
3.80919 °/min
Orbital period
94.51 mins
BSTAR
0.00010023
Loading maneuver chart data...
Computing Atmospheric mass density...
Loading historical data...
Loading historical data...
Loading historical data...
Loading historical data...
Loading historical data...
Loading historical data...
Loading historical data...
Other satellites on launch #179 in the year 2023 (2023-11-21 UTC)

Documentation

Showing up to 5 results
|